Weather History for KMWT - October, 2012

Change the Weather History Date:

Monday, October 15, 2012

  Actual Average (KHOT) Record (KHOT)
Temperature  
Mean Temperature 64 °F -  
Max Temperature 81 °F 77 °F - (-1)
Min Temperature 46 °F 51 °F - (-1)
Degree Days  
Heating Degree Days 2    
Growing Degree Days 14 (Base 50)    
Moisture  
Dew Point 49 °F    
Average Humidity 71    
Maximum Humidity 97    
Minimum Humidity 27    
Precipitation  
Precipitation 0.00 in - - ()
Sea Level Pressure  
Sea Level Pressure 30.01 in    
Wind  
Wind Speed 0 mph (North)    
Max Wind Speed 0 mph    
Max Gust Speed -    
Visibility 9 miles    
Events      
Averages and records for this station are not official NWS values.
T = Trace of Precipitation, MM = Missing Value Source: NWS Daily Summary

Daily Weather History Graph

Daily Weather History Graph

Search for Another Location

Airport or City:

Trip Planner

Search our weather history database for the weather conditions in past years. The results will help you decide how hot, cold, wet, or windy it might be!

Date:

Astronomy

Oct. 15, 2012 Rise Set
Actual Time 7:20 AM CDT 6:39 PM CDT
Civil Twilight 6:54 AM CDT 7:04 PM CDT
Nautical Twilight 6:25 AM CDT 7:33 PM CDT
Astronomical Twilight 5:56 AM CDT 8:02 PM CDT
Moon 7:29 AM CDT (10/15) 6:42 PM CDT (10/15)
Length of Visible Light 12h 09m
Length of Day
11h 18m
New Moon, 0% of the Moon is Illuminated
Oct 15
New Moon
Oct 21
First Quarter
Oct 29
Full
Nov 6
Last Quarter
Nov 13
New

Hourly Weather History & Observations

Time (CDT) Temp. Dew Point Humidity Pressure Visibility Wind Dir Wind Speed Gust Speed Precip Events Conditions
12:53 AM 52.0 °F 51.1 °F 97% 30.03 in 8.0 mi Calm Calm - N/A   Clear
1:53 AM 51.1 °F 50.0 °F 96% 30.04 in 8.0 mi Calm Calm - N/A   Clear
2:53 AM 50.0 °F 48.9 °F 96% 30.03 in 7.0 mi Calm Calm - N/A   Clear
3:53 AM 48.9 °F 48.0 °F 97% 30.03 in 8.0 mi Calm Calm - N/A   Clear
4:53 AM 48.9 °F 48.0 °F 97% 30.02 in 6.0 mi Calm Calm - N/A   Clear
5:53 AM 48.0 °F 46.9 °F 96% 30.03 in 8.0 mi Calm Calm - N/A   Clear
6:53 AM 46.9 °F 46.0 °F 97% 30.05 in 7.0 mi Calm Calm - N/A   Clear
7:53 AM 46.9 °F 46.0 °F 97% 30.06 in 7.0 mi Calm Calm - N/A   Clear
8:53 AM 52.0 °F 51.1 °F 97% 30.07 in 10.0 mi Calm Calm - N/A   Clear
9:53 AM 62.1 °F 55.9 °F 80% 30.07 in 10.0 mi Calm Calm - N/A   Clear
10:53 AM 70.0 °F 54.0 °F 57% 30.06 in 10.0 mi Calm Calm - N/A   Clear
11:53 AM 73.9 °F 48.9 °F 41% 30.05 in 10.0 mi Calm Calm - N/A   Clear
12:53 PM 77.0 °F 45.0 °F 32% 30.04 in 10.0 mi Calm Calm - N/A   Clear
1:53 PM 78.1 °F 43.0 °F 29% 30.01 in 10.0 mi Calm Calm - N/A   Clear
2:53 PM 80.1 °F 44.1 °F 28% 29.98 in 10.0 mi Calm Calm - N/A   Clear
3:53 PM 81.0 °F 44.1 °F 27% 29.95 in 10.0 mi Calm Calm - N/A   Clear
4:53 PM 79.0 °F 46.0 °F 31% 29.94 in 10.0 mi Calm Calm - N/A   Clear
5:53 PM 73.0 °F 51.1 °F 46% 29.94 in 10.0 mi Calm Calm - N/A   Clear
6:53 PM 64.9 °F 54.0 °F 68% 29.95 in 10.0 mi Calm Calm - N/A   Clear
7:53 PM 63.0 °F 52.0 °F 67% 29.97 in 10.0 mi Calm Calm - N/A   Clear
8:53 PM 59.0 °F 51.1 °F 75% 29.97 in 10.0 mi Calm Calm - N/A   Clear
9:53 PM 57.0 °F 52.0 °F 83% 29.97 in 10.0 mi Calm Calm - N/A   Clear
10:53 PM 55.0 °F 52.0 °F 89% 29.97 in 10.0 mi Calm Calm - N/A   Clear
11:53 PM 55.9 °F 52.0 °F 87% 29.96 in 10.0 mi Calm Calm - N/A   Clear